Terminal Aerodrome Forecast
Issued by NWS Spokane, WA

Home | Current Version | Previous Version | Text Only | Print | Product List | Glossary On
Versions: 1 2 3 4 5 6 7 8 9 10 11 12 13 14 15 16 17 18 19 20 21 22 23 24 25 26 27 28 29 30 31 32 33 34 35 36 37 38 39 40 41 42 43 44 45 46 47 48 49 50
000
FTUS46 KOTX 211305 AAA
TAFGEG
TAF AMD
KGEG 211305Z 2113/2212 23020G27KT P6SM SCT008 SCT120 BKN150
     FM211800 23022G34KT P6SM SCT150 BKN200
     FM220400 24012G20KT P6SM BKN004=

USA.gov is the U.S. government's official web portal to all federal, state and local government web resources and services.